Regional Weather Roundup
Issued by NWS

Home | Current Version | Previous Version | Text Only | Print | Product List | Glossary Off
Versions: 1 2 3 4 5 6 7 8 9 10 11 12 13 14 15 16 17 18 19 20 21 22 23 24 25 26 27 28 29 30 31 32 33 34 35 36 37 38 39 40 41 42 43 44 45 46 47 48 49 50

624
ASUS44 KMEG 091700
RWRTN
TENNESSEE HOURLY STATE WEATHER ROUNDUP
NATIONAL WEATHER SERVICE MEMPHIS TN
1100 AM CST TUE FEB 09 2016

TNZ002-004-019-021-049-052-054-088>092-091800-
WEST TENNESSEE

CITY           SKY/WX    TMP DP  RH WIND       PRES   REMARKS
MEMPHIS INTL   PTSUNNY   37  14  38 N16G25    30.02R WCI  28
NWS MEMPHIS      N/A     33 N/A N/A MISG        N/A
JACKSON        FLURRIES  27  21  78 N9        30.01R WCI  18
DYERSBURG      CLOUDY    25  18  74 W7        30.04R VSB 3/4 WCI  17
UNION CITY     CLOUDY    21  19  93 NW8       30.00R WCI  12
PARIS          CLOUDY    21  14  73 NW8       29.98R WCI  12
$$

TNZ008-025-027-028-033-062-065-066-091800-
NORTH MIDDLE TENNESSEE

CITY           SKY/WX    TMP DP  RH WIND       PRES   REMARKS
NASHVILLE      LGT SNOW  26  19  74 NW9       29.92R VSB 3/4 WCI  17
CLARKSVILLE    CLOUDY    23  13  65 NW15      29.94R WCI  10
CROSSVILLE     CLOUDY    22  15  75 W10       29.79F WCI  11
$$

TNZ061-075-076-078-094-096-097-091800-
SOUTH MIDDLE TENNESSEE

CITY           SKY/WX    TMP DP  RH WIND       PRES   REMARKS
TULLAHOMA      CLOUDY    27  25  93 W7        29.87S WCI  19
WINCHESTER     CLOUDY    28  23  80 W7        29.88S WCI  21
MCMINNVILLE    CLOUDY    25  19  80 VRB5      29.86F WCI  19
COLUMBIA       CLOUDY    27  21  80 NW10      29.91S WCI  17
SHELBYVILLE    CLOUDY    28  25  86 NW12      29.91R WCI  18
$$

TNZ017-018-042-046-047-091800-
NORTHEAST TENNESSEE

CITY           SKY/WX    TMP DP  RH WIND       PRES   REMARKS
TRI CITIES     FLURRIES  24  15  68 W13       29.75S WCI  12
$$

TNZ012-013-036-069-073-074-091800-
CENTRAL EAST TENNESSEE

CITY           SKY/WX    TMP DP  RH WIND       PRES   REMARKS
KNOXVILLE      FLURRIES  27  16  63 W7        29.84S WCI  19
OAK RIDGE      CLOUDY    27  18  69 VRB6      29.85S WCI  20
GATLINBURG     CLOUDY    27  10  50 W13       29.81S WCI  16
$$

TNZ083-085-099-091800-
SOUTHEAST TENNESSEE

CITY           SKY/WX    TMP DP  RH WIND       PRES   REMARKS
CHATTANOOGA    PTSUNNY   31  23  72 W7        29.87F WCI  24
$$

SKY/WX REPORTED AS FAIR MEANS FEW OR NO CLOUDS BELOW
12 THOUSAND FEET.





USA.gov is the U.S. government's official web portal to all federal, state and local government web resources and services.